Regional Weather Roundup
Issued by NWS Columbia, SC

Home | Current Version | Previous Version | Text Only | Print | Product List | Glossary On
Versions: 1 2 3 4 5 6 7 8 9 10 11 12 13 14 15 16 17 18 19 20 21 22 23 24 25 26 27 28 29 30 31 32 33 34 35 36 37 38 39 40 41 42 43 44 45 46 47 48 49 50
000
ASUS42 KCAE 181710
RWRCAE
REGIONAL WEATHER ROUNDUP
NATIONAL WEATHER SERVICE COLUMBIA SC
100 PM EDT SAT APR 18 2015

NOTE: "FAIR" INDICATES FEW OR NO CLOUDS BELOW 12,000 FEET WITH NO
SIGNIFICANT WEATHER AND/OR OBSTRUCTIONS TO VISIBILITY.

NOT ALL STATIONS ARE QUALITY CONTROLLED BY THE NATIONAL
WEATHER SERVICE. USE DATA WITH CAUTION...ESPECIALLY
DEWPOINT OBSERVATIONS.

SCZ001>056-GAZ040-063>065-077-181800-
...UPSTATE SOUTH CAROLINA...

CITY           SKY/WX    TMP DP  RH WIND       PRES   REMARKS
ANDERSON       CLOUDY    73  62  68 E7        30.00S
LIBERTY        PTSUNNY   77  62  58 E10       30.00S
SPARTANBURG    MOSUNNY   77  61  57 E3        30.00S
CLEMSON        PTSUNNY   75  60  59 VRB5      30.01S
GREENVILLE     PTSUNNY   76  59  55 NE7       30.01S
GREENWOOD      CLOUDY    72  64  76 SE8       30.01F
GREER          MOSUNNY   74  61  63 NE6       29.99F
ROCK HILL      PTSUNNY   76  62  62 CALM      30.00F
CHESTER        MOSUNNY   77  61  57 E5        30.00F
LAURENS        PTSUNNY   72  68  88 CALM      30.00S


...CENTRAL SOUTH CAROLINA...

CITY           SKY/WX    TMP DP  RH WIND       PRES   REMARKS
COLUMBIA APT   CLOUDY    72  65  78 SE7       29.99F
COLUMBIA OWENS CLOUDY    71  64  78 SE3       30.01S
DARLINGTON     CLOUDY    75  63  64 CALM      30.01S
FLORENCE       CLOUDY    75  64  68 E6        30.00F
MCENTIRE ANGB  PTSUNNY   72  66  83 E2        30.00F
ORANGEBURG     LGT RAIN  72  64  76 E5        30.00S
SUMTER SHAW    CLOUDY    75  64  69 E6        29.97F
NEWBERRY       PTSUNNY   72  63  73 SE8       30.03S
AIKEN          RAIN      66  64  94 NE3       30.04S
BARNWELL       CLOUDY    70  70 100 SE5       30.00S FOG
MANNING        HVY RAIN  73  63  68 CALM      30.00S
CAMDEN         PTSUNNY   73  64  73 CALM      30.01F
LANCASTER      PTSUNNY   72  66  83 E6        30.01F
WINNSBORO      PTSUNNY   72  64  78 E5        30.00F


...EASTERN AND COASTAL SOUTH CAROLINA...

CITY           SKY/WX    TMP DP  RH WIND       PRES   REMARKS
MYRTLE BEACH   RAIN      72  64  78 E8        30.02F
N MYRTLE BCH   LGT RAIN  69  64  84 E3        30.00F
CONWAY         CLOUDY    70  68  94 NE6       30.01S
MARION         CLOUDY    73  68  83 NE3       30.00F
HARTSVILLE     CLOUDY    72  63  73 CALM      30.01F
FLORENCE       CLOUDY    75  64  68 E6        30.00F
DARLINGTON     CLOUDY    75  63  64 CALM      30.01S
CHARLESTON APT HVY RAIN  72  68  87 E5        29.99S FOG
MOUNT PLEASANT LGT RAIN  73  70  88 E3        29.99S
WALTERBORO     PTSUNNY   73  68  83 E3        30.00S
BEAUFORT         N/A    N/A N/A N/A MISG      29.99S


...EASTERN GEORGIA...

CITY           SKY/WX    TMP DP  RH WIND       PRES   REMARKS
AUGUSTA BUSH F CLOUDY    69  67  93 E5        29.99S FOG
AUGUSTA DANIEL LGT RAIN  68  65  90 E6        30.00F FOG
THOMSON        CLOUDY    70  70  99 CALM      30.04F
WASHINGTON     RAIN      70  70 100 CALM      30.00F
CLAXTON        CLOUDY    72  70  94 CALM      29.99F FOG
SYLVANIA       PTSUNNY   75  69  83 W5        30.00S
STATESBORO       N/A     75  68  78 SW5       29.98F
SAVANNAH       PTSUNNY   76  67  73 SE6       29.98F


...SOUTHERN NORTH CAROLINA...

CITY           SKY/WX    TMP DP  RH WIND       PRES   REMARKS
CHARLOTTE      CLOUDY    77  62  59 CALM      30.00F
MONROE         PTSUNNY   75  61  61 CALM      29.99F
WADESBORO      CLOUDY    75  61  62 CALM      30.00S
ROCKINGHAM     CLOUDY    74  63  68 SW3       30.00S
RUTHERFORDTON  CLOUDY    74  60  60 CALM      30.01F
ASHEVILLE      CLOUDY    72  54  53 VRB3      30.04F

$$



USA.gov is the U.S. government's official web portal to all federal, state and local government web resources and services.